HULIANWANG DIGUI-139

导读 | 豆包AI

“HULIANWANG DIGUI-139”是中国于2026年1月13日发射的低轨卫星,属低轨互联网星座部署范畴,承载卫星互联网组网任务。低轨卫星互联网依托近地轨道,可实现全球无缝网络覆盖,弥补地面网络盲区,服务全球通信、物联网等领域,推动天地一体化信息网络建设,赋能数字经济发展。

基本信息
目录编号:
67437
目录名称:
HULIANWANG DIGUI-139
国际标识:
2026-007C
轨道中心:
EARTH
卫星名称:
HULIANWANG DIGUI-139
卫星全名:
HULIANWANG DIGUI-139
卫星状态:
在轨 (已飞行81 天)
发射日期:
2026-01-13 UTC
国别 :
中国 (CN)
星等 :
--
轨道信息
数据来源 国际轨道数据 AOE轨道数据
星历时间 2026-04-04T05:17:08+0800
3小时前
查看轨道信息
2026-03-31T21:00:00+0800
3天前
查看轨道信息
半长轴 7527.43km 7527.433km
偏心率 0.0000296 0.0000249
轨道倾角 50.006° 50.005°
近地点辐角 94.581° 124.651°
升交点赤经 352.345° 4.343°
平近点角 265.510° 56.601°
近地点 1149.07km 1149.108km
远地点 1149.516km 1149.484km
周期 108.325分钟 108.325分钟
每日圈数 13.293298 13.293289
详细信息
使用方式:
暂无
2D轨道图
3D轨道图
轨道高度分析图
轨道倾角分析图
轨道综合分析图
查看轨道综合分析图